Location: 81360 Arifat, France
(43.7204°N, 2.3408°E)
Time: 03:01:43
(UTC+02:00)

Envisat - Pass Details

Date: 01 October 2021
Orbit: 764 x 766 km, 98.2° (Epoch: 17 October)

Event Time Altitude Azimuth Distance (km) Brightness Sun altitude
Rises 07:13:32 0° 11° (N) 3,240 6.4 -7.1°
Reaches altitude 10° 07:15:50 10° 10° (N) 2,309 5.7 -6.7°
Maximum altitude 07:20:55 77° 286° (WNW) 788 3.0 -5.8°
Drops below altitude 10° 07:25:58 10° 200° (SSW) 2,292 5.3 -4.9°
Sets 07:28:16 0° 199° (SSW) 3,214 6.0 -4.4°
